Home > Weather > Isle of Man > Douglas > Past weeks

Flag for Isle of Man Weather past 2 weeks in Douglas, Isle of Man

54 °F

Passing clouds.

Feels Like: 47 °F
Forecast: N/A
Wind: 30 mph from Southwest

Location: Isle Of Man / Ronaldsway Airport

Current Time: Dec 1, 2015 at 11:01:32 PM

Latest Report: Dec 1, 2015 at 9:50 PM

Visibility: N/A

Pressure: 29.92 "Hg

Humidity: 82%

Dew point: 48 °F

Location of DouglasLocation

Historic Weather in Douglas — Graph


Douglas temperature yesterday

Maximum temperature yesterday: 54 °F (at 10:50 AM)
Minimum temperature yesterday: 37 °F (at 11:50 PM)
Average temperature yesterday: 44 °F

Past Weeks' High & Low Weather Summary

High57 °F (Nov 17, 2:20 PM)100% (Nov 17, 10:50 AM)30.24 "Hg (Nov 17, 10:50 AM)
Low32 °F (Nov 22, 11:50 PM)45% (Nov 20, 4:50 PM)29.12 "Hg (Nov 17, 2:20 PM)
Average47 °F80%29.77 "Hg
* Reported Nov 16 9:50 PM — Dec 1 9:20 PM, Douglas, Weather by CustomWeather, © 2015

Note: Actual official high and low records may vary slightly from our data, if they occured in-between our weather recording intervals... More about our weather records


Douglas weather history for previous 24 hours

Time TempWeatherWind HumidityBarometerVisibility
9:20 PM
Tue, Dec 1
54 °FPassing clouds.30 mph82%29.92 "HgN/A
8:50 PM54 °FPassing clouds.30 mph82%29.92 "HgN/A
8:20 PM54 °FPassing clouds.35 mph82%29.92 "HgN/A
7:50 PM54 °FPassing clouds.30 mph82%29.95 "HgN/A
7:20 PM54 °FOvercast.29 mph82%29.95 "HgN/A
6:50 PM54 °FOvercast.23 mph88%29.95 "HgN/A
6:20 PM54 °FOvercast.28 mph88%29.95 "HgN/A
5:50 PM55 °FPassing clouds.25 mph82%29.95 "HgN/A
5:20 PM55 °FPassing clouds.26 mph82%29.95 "HgN/A
4:50 PM54 °FPassing clouds.24 mph94%29.95 "HgN/A
4:20 PM54 °FPassing clouds.25 mph94%29.95 "HgN/A
3:50 PM54 °FBroken clouds.25 mph94%29.92 "HgN/A
3:20 PM55 °FBroken clouds.24 mph88%29.92 "HgN/A
2:50 PM54 °FDrizzle. Mostly cloudy.22 mph94%29.92 "HgN/A
2:20 PM55 °FPartly sunny.22 mph88%29.92 "HgN/A
1:50 PM55 °FScattered clouds.20 mph88%29.92 "HgN/A
1:20 PM55 °FScattered clouds.20 mph88%29.92 "HgN/A
12:50 PM55 °FScattered clouds.21 mph88%29.92 "HgN/A
12:20 PM55 °FPartly sunny.20 mph88%29.92 "HgN/A
11:50 AM55 °FPartly sunny.18 mph88%29.92 "HgN/A
11:20 AM55 °FPartly sunny.18 mph88%29.92 "HgN/A
10:50 AM54 °FPartly sunny.15 mph94%29.92 "HgN/A
10:20 AM55 °FPartly sunny.23 mph88%29.92 "HgN/A
9:50 AM55 °FPartly sunny.24 mph82%29.92 "HgN/A
9:20 AM55 °FPartly sunny.23 mph82%29.92 "HgN/A
8:50 AM54 °FBroken clouds.18 mph94%29.92 "HgN/A
6:50 AM46 °FHeavy rain. Mostly cloudy.6 mph100%29.92 "Hg2 mi
6:20 AM46 °FHeavy rain. Mostly cloudy.12 mph100%29.92 "Hg1 mi
5:50 AM46 °FHeavy rain. Mostly cloudy.13 mph100%29.92 "Hg1 mi
5:20 AM46 °FRain. Overcast.14 mph100%29.95 "Hg2 mi
4:50 AM46 °FRain. Mostly cloudy.14 mph93%29.95 "Hg2 mi
3:50 AM46 °FRain. Mostly cloudy.13 mph93%29.98 "Hg2 mi
2:50 AM45 °FLight rain. Mostly cloudy.6 mph93%30.01 "HgN/A
1:50 AM41 °FLight rain. Passing clouds.2 mph93%30.01 "HgN/A
12:50 AM39 °FPassing clouds.5 mph93%30.01 "HgN/A
11:50 PM
Mon, Nov 30
37 °FPassing clouds.3 mph93%30.01 "HgN/A
Weather by CustomWeather, © 2015

See weather overviewHow to use our weather pages